Regional Weather Roundup
Issued by NWS

Home | Current Version | Previous Version | Text Only | Print | Product List | Glossary On
Versions: 1 2 3 4 5 6 7 8 9 10 11 12 13 14 15 16 17 18 19 20 21 22 23 24 25 26 27 28 29 30 31 32 33 34 35 36 37 38 39 40 41 42 43 44 45 46 47 48 49 50
000
ASUS44 KJAN 051110
RWRMS

MISSISSIPPI HOURLY WEATHER ROUNDUP
NATIONAL WEATHER SERVICE JACKSON MS
500 AM CST MON DEC 05 2016

NOTE: "FAIR: INDICATES FEW OR NO CLOUDS BELOW 12,000 FEET WITH NO
SIGNIFICANT WEATHER AND/OR OBSTRUCTIONS TO VISIBILITY.

MSZ001>002-007>008-010>013-018>021-025>028-034>036-051200-
NORTHWEST MISSISSIPPI

CITY           SKY/WX    TMP DP  RH WIND       PRES   REMARKS
CLEVELAND      CLOUDY    45  45 100 NE6       30.00S
GREENWOOD      CLOUDY    47  42  83 E6        30.00R
GREENVILLE     CLOUDY    45  41  86 N5        30.01R
OXFORD         CLOUDY    41  39  93 NE7       30.02S
WINONA         CLOUDY    46  45  97 NE3       29.98F
$$

MSZ003>006-009-014>017-022>024-029>033-037>039-051200-
NORTHEAST MISSISSIPPI

CITY           SKY/WX    TMP DP  RH WIND       PRES   REMARKS
COLUMBUS AFB   CLOUDY    49  47  92 N6        29.97F
GOLDN TRIANGLE CLOUDY    48  45  87 NE6       29.93F
STARKVILLE     CLOUDY    46  46 100 CALM      30.00S FOG
TUPELO         CLOUDY    46  42  86 N8        30.00S
$$

MSZ040-058-051200-
CENTRAL MISSISSIPPI

CITY           SKY/WX    TMP DP  RH WIND       PRES   REMARKS
JACKSON INTL   CLOUDY    49  48  97 NE8       29.94F FOG
JACKSON HAWKNS CLOUDY    49  47  93 NE6       29.94F FOG
MADISON        CLOUDY    46  45  93 CALM      29.95F
MERIDIAN KEY   CLOUDY    51  48  89 NE6       29.96S
MERIDIAN NAS   FOG       51  47  86 NE6       29.96F VSB 1/2
VICKSBURG VKS  CLOUDY    48  46  93 NE5       29.95S
$$

MSZ059>079-051200-
SOUTH MISSISSIPPI

CITY           SKY/WX    TMP DP  RH WIND       PRES   REMARKS
BROOKHAVEN     CLOUDY   N/A N/A N/A CALM      29.94S FOG
COLUMBIA       CLOUDY    54  54 100 NE6       29.95F FOG
HATTIESBURG    CLOUDY    54  53  97 NE7       29.94F FOG
LAUREL         CLOUDY    52  52 100 NE6       29.96S
MCCOMB         CLOUDY    50  49  96 CALM      29.92S FOG
NATCHEZ        CLOUDY    48  45  87 NE8       29.91F
PINE BELT      CLOUDY    52  48  87 NE7       29.95F
$$

MSZ080>082-051200-
COASTAL MISSISSIPPI

CITY           SKY/WX    TMP DP  RH WIND       PRES   REMARKS
BILOXI         CLOUDY    58  58 100 NE9       29.89S
PASCAGOULA     CLOUDY    60  57  89 N8        29.90S
GULFPORT       CLOUDY    59  59 100 NE8       29.89S FOG
$$

LAZ007>009-015>016-023>026-051200-
NORTHEAST LOUISIANA

CITY           SKY/WX    TMP DP  RH WIND       PRES   REMARKS
BASTROP        CLOUDY    45  45  99 N6        29.96F
TALLULAH/VBURG LGT RAIN  47  46  97 NE8       29.95F
VIDALIA        CLOUDY    48  47  96 N10       29.94F
$$



USA.gov is the U.S. government's official web portal to all federal, state and local government web resources and services.